Weather History for CXHM - August, 2013

Change the Weather History Date:

Tuesday, August 13, 2013

  Actual Average Record
Temperature  
Mean Temperature 62 °F -  
Max Temperature 69 °F - - ()
Min Temperature 51 °F - - ()
Degree Days  
Heating Degree Days 4    
Growing Degree Days 12 (Base 50)    
Moisture  
Dew Point 55 °F    
Average Humidity 74    
Maximum Humidity 95    
Minimum Humidity 42    
Precipitation  
Precipitation 0.06 in - - ()
Sea Level Pressure  
Sea Level Pressure 29.82 in    
Wind  
Wind Speed 4 mph ()    
Max Wind Speed 10 mph    
Max Gust Speed 20 mph    
T = Trace of Precipitation, MM = Missing Value Source: Averaged Metar Reports

Daily Weather History Graph

Daily Weather History Graph

Search for Another Location

Airport or City:

Trip Planner

Search our weather history database for the weather conditions in past years. The results will help you decide how hot, cold, wet, or windy it might be!

Date:

Astronomy

Aug. 13, 2013 Rise Set
Actual Time 6:22 AM EDT 8:25 PM EDT
Civil Twilight 5:51 AM EDT 8:56 PM EDT
Nautical Twilight 5:13 AM EDT 9:33 PM EDT
Astronomical Twilight 4:32 AM EDT 10:15 PM EDT
Moon 1:29 PM EDT (8/13) 11:45 PM EDT (8/13)
Length of Visible Light 15h 04m
Length of Day
14h 02m
Waxing Crescent, 41% of the Moon is Illuminated
Aug 13
Waxing Crescent
Aug 14
First Quarter
Aug 20
Full
Aug 28
Last Quarter
Sep 5
New

Hourly Weather History & Observations

Time (EDT) Temp. Dew Point Humidity Pressure Visibility Wind Dir Wind Speed Gust Speed Precip Events Conditions
12:00 AM 65.7 °F 63.0 °F 91% 29.81 in - WNW 2.3 mph - 0.02 in   Unknown
1:00 AM 65.7 °F 63.5 °F 93% 29.79 in - WNW 2.3 mph - N/A   Unknown
2:00 AM 65.5 °F 63.7 °F 94% 29.78 in - WSW 1.2 mph - 0.06 in   Unknown
3:00 AM 64.6 °F 62.8 °F 94% 29.76 in - WNW 2.3 mph - N/A   Unknown
4:00 AM 63.7 °F 62.1 °F 94% 29.74 in - WSW 1.2 mph - N/A   Unknown
5:00 AM 63.5 °F 62.1 °F 95% 29.73 in - East 1.2 mph - N/A   Unknown
6:00 AM 63.9 °F 62.4 °F 95% 29.75 in - SW 1.2 mph - N/A   Unknown
7:00 AM 63.0 °F 61.0 °F 93% 29.76 in - West 2.3 mph - N/A   Unknown
8:00 AM 64 °F 61 °F 85% 29.77 in - WSW 1.2 mph - -  
8:00 AM 63.9 °F 60.6 °F 89% 29.77 in - WSW 1.2 mph - N/A   Unknown
9:00 AM 63.7 °F 59.2 °F 85% 29.78 in - West 5.8 mph - N/A   Unknown
10:00 AM 64.6 °F 57.2 °F 77% 29.79 in - West 4.6 mph - N/A   Unknown
11:00 AM 66.2 °F 55.9 °F 69% 29.81 in - WNW 9.2 mph - N/A   Unknown
12:00 PM 67.6 °F 51.8 °F 57% 29.81 in - WNW 9.2 mph - N/A   Unknown
1:00 PM 68.4 °F 50.9 °F 54% 29.82 in - WNW 10.4 mph 18.4 mph N/A   Unknown
2:00 PM 68 °F 50 °F 42% 29.83 in - WNW 8.1 mph - -  
2:00 PM 68.2 °F 50.0 °F 52% 29.83 in - WNW 8.1 mph 17.3 mph N/A   Unknown
3:00 PM 66.9 °F 49.3 °F 53% 29.84 in - NW 9.2 mph 19.6 mph N/A   Unknown
4:00 PM 64.6 °F 48.0 °F 55% 29.85 in - WNW 10.4 mph - N/A   Unknown
5:00 PM 62.4 °F 47.7 °F 58% 29.87 in - WNW 10.4 mph - N/A   Unknown
6:00 PM 61.2 °F 48.4 °F 63% 29.88 in - WNW 9.2 mph - N/A   Unknown
7:00 PM 59.9 °F 46.6 °F 61% 29.89 in - WNW 9.2 mph 18.4 mph N/A   Unknown
8:00 PM 59 °F 47 °F 56% 29.90 in - West 6.9 mph - -  
8:00 PM 59.0 °F 47.5 °F 66% 29.90 in - West 6.9 mph - N/A   Unknown
9:00 PM 56.8 °F 47.3 °F 70% 29.89 in - West 2.3 mph - N/A   Unknown
10:00 PM 54.9 °F 47.1 °F 75% 29.90 in - West 2.3 mph - N/A   Unknown
11:00 PM 51.8 °F 47.5 °F 85% 29.89 in - WSW 2.3 mph - N/A   Unknown